[ hide orbit diagram ]
For accurate long-term ephemerides, please instead use our Horizons system.This orbit viewer was implemented using two-body methods, and hence should not be used for determining accurate long-term trajectories (over several years or decades) or planetary encounter circumstances.
Orbital Elements at Epoch 2459000.5 (2020-May-31.0) TDB
Reference: JPL 22 (heliocentric ecliptic J2000)
Element | Value | Uncertainty (1-sigma) | Units |
e | .4263382669078906 | 6.0239e-08 | |
a | 2.522202109448151 | 4.1153e-09 | au |
q | 1.4468908333146 | 1.5353e-07 | au |
i | 5.275590602215338 | 5.1051e-06 | deg |
node | 317.2737438231089 | 2.6714e-05 | deg |
peri | 238.1619874004912 | 2.7623e-05 | deg |
M | 5.260558596525814 | 6.4395e-06 | deg |
tp | 2458979.120496491276 (2020-May-09.62049649) | 2.6128e-05 | TDB |
period | 1463.080606729422 4.01 | 3.5808e-06 9.804e-09 | d yr |
n | .2460561628280659 | 6.022e-10 | deg/d |
Q | 3.597513385581701 | 5.8698e-09 | au |
|
| | Orbit Determination Parameters
Additional Information
|
[ hide covariance matrix ]
Orbital Elements at Epoch 2457092.5 (2015-Mar-11.0) TDB
Reference: JPL 22 (heliocentric ecliptic J2000)
Element | Value | Uncertainty (1-sigma) | Units |
e | .4268788922499939 | 6.0171e-08 | |
q | 1.444913330952917 | 1.5342e-07 | au |
tp | 2457515.723728627424 (2016-May-07.22372863) | 2.3038e-05 | TDB |
node | 317.3220345150677 | 2.67e-05 | deg |
peri | 238.0766075102667 | 2.7609e-05 | deg |
i | 5.278312658658551 | 5.1075e-06 | deg |
|
| | Orbit Determination Parameters
Additional Information
|
Orbit Covariance (6×6)
|
|
e |
q |
tp |
node |
peri |
i |
e |
3.620521206961829E-15 |
-9.230997409814221E-15 |
-1.10996830501986E-12 |
-8.415875212342702E-15 |
-1.602802443553399E-13 |
-6.610700778610581E-14 |
q |
-9.230997409814221E-15 |
2.353871575751948E-14 |
2.843271993603923E-12 |
2.186031039736668E-14 |
4.142162105825585E-13 |
1.691487308768203E-13 |
tp |
-1.10996830501986E-12 |
2.843271993603923E-12 |
5.307601749225759E-10 |
3.239262992597365E-12 |
1.412630827590983E-10 |
2.286886187656707E-11 |
node |
-8.415875212342702E-15 |
2.186031039736668E-14 |
3.239262992597365E-12 |
7.128694026287104E-10 |
-7.085086600265437E-10 |
5.890180092512612E-11 |
peri |
-1.602802443553399E-13 |
4.142162105825585E-13 |
1.412630827590983E-10 |
-7.085086600265437E-10 |
7.622334598661271E-10 |
-5.446214535970425E-11 |
i |
-6.610700778610581E-14 |
1.691487308768203E-13 |
2.286886187656707E-11 |
5.890180092512612E-11 |
-5.446214535970425E-11 |
2.608671281099302E-11 |
|
Physical Parameter Table
Parameter |
Symbol |
Value |
Units |
Sigma |
Reference |
Notes |
absolute magnitude |
H |
16.3 |
|
n/a |
MPO416857 |
|
|
13551 Gadsden | Discovered 1992 Mar. 26 by R. H. McNaught at Siding Spring. |
Michael Gadsden (1933-2003) worked during the International Geophysical Year on airglow and aurorae in New Zealand and Antarctica and later at Boulder and Aberdeen. He was an authority on noctilucent clouds and secretary general of the International Association of Geomagnetism and Aeronomy. |
NOTE: some special characters may not display properly (any characters within {} are an attempt to place the proper accent above a character) |
Reference: 20070106/MPCPages.arc | Last Updated: 2007-01-09 |
|
[ show close-approach data ]
|